Moriarty, NM

7:12 PM MST on November 21, 2017 (GMT -0700)
Moriarty

Weather History for K0E0 - January, 2014

Change the Weather History Date:

Wednesday, January 22, 2014

  Actual Average (KABQ) Record (KABQ)
Temperature  
Mean Temperature 26 °F -  
Max Temperature 45 °F 46 °F 66 °F (1950)
Min Temperature 8 °F 23 °F 3 °F (1918)
Degree Days  
Heating Degree Days 38    
Moisture  
Dew Point 7 °F    
Average Humidity 46    
Maximum Humidity 76    
Minimum Humidity 21    
Precipitation  
Precipitation 0.00 in - - ()
Sea Level Pressure  
Sea Level Pressure 30.10 in    
Wind  
Wind Speed 3 mph (SE)    
Max Wind Speed 7 mph    
Max Gust Speed -    
Visibility 10 miles    
Events      
Averages and records for this station are not official NWS values.
T = Trace of Precipitation, MM = Missing Value Source: NWS Daily Summary

Daily Weather History Graph

Daily Weather History Graph

Search for Another Location

Airport or City:

Trip Planner

Search our weather history database for the weather conditions in past years. The results will help you decide how hot, cold, wet, or windy it might be!

Date:

Astronomy

Jan. 22, 2014 Rise Set
Actual Time 7:08 AM MST 5:22 PM MST
Civil Twilight 6:41 AM MST 5:49 PM MST
Nautical Twilight 6:11 AM MST 6:20 PM MST
Astronomical Twilight 5:40 AM MST 6:50 PM MST
Moon 11:40 PM MST 10:27 AM MST
Length of Visible Light 11h 08m
Length of Day
10h 13m
Waning Gibbous, 65% of the Moon is Illuminated
Jan 22
Waning Gibbous
Jan 23
Last Quarter
Jan 30
New
Feb 6
First Quarter
Feb 14
Full

Hourly Weather History & Observations

Time (MST) Temp. Windchill Dew Point Humidity Pressure Visibility Wind Dir Wind Speed Gust Speed Precip Events Conditions
12:15 AM 12.7 °F 6.7 °F 2.8 °F 65% 30.25 in 10.0 mi South 3.5 mph - N/A   Clear
12:35 AM 10.4 °F 4.0 °F 1.8 °F 68% 30.23 in 10.0 mi North 3.5 mph - N/A   Clear
12:55 AM 11.8 °F - 2.7 °F 67% 30.23 in 10.0 mi Calm Calm - N/A   Clear
1:15 AM 10.0 °F 0.4 °F 1.6 °F 69% 30.22 in 10.0 mi NE 5.8 mph - N/A   Clear
1:35 AM 10.4 °F 2.2 °F 2.7 °F 71% 30.22 in 10.0 mi North 4.6 mph - N/A   Clear
1:55 AM 10.6 °F - 2.3 °F 69% 30.22 in 10.0 mi Calm Calm - N/A   Clear
2:15 AM 10.6 °F - 2.3 °F 69% 30.22 in 10.0 mi Calm Calm - N/A   Clear
2:55 AM 8.2 °F 1.6 °F 1.9 °F 76% 30.20 in 10.0 mi North 3.5 mph - N/A   Clear
3:15 AM 8.4 °F 1.8 °F 1.6 °F 74% 30.20 in 10.0 mi North 3.5 mph - N/A   Clear
3:35 AM 8.6 °F 0.1 °F 2.3 °F 76% 30.19 in 10.0 mi NNW 4.6 mph - N/A   Clear
3:55 AM 9.3 °F 1.0 °F 2.1 °F 73% 30.19 in 10.0 mi NW 4.6 mph - N/A   Clear
4:15 AM 15.6 °F 10.0 °F 5.2 °F 63% 30.19 in 10.0 mi West 3.5 mph - N/A   Clear
4:35 AM 10.9 °F - 2.1 °F 68% 30.19 in 10.0 mi Calm Calm - N/A   Clear
4:55 AM 11.7 °F 2.3 °F 4.3 °F 72% 30.18 in 10.0 mi ENE 5.8 mph - N/A   Clear
5:15 AM 14.4 °F 4.3 °F 6.3 °F 70% 30.17 in 10.0 mi ENE 6.9 mph - N/A   Clear
5:35 AM 14.2 °F 6.7 °F 5.7 °F 69% 30.17 in 10.0 mi NNE 4.6 mph - N/A   Clear
5:55 AM 14.0 °F 8.2 °F 5.9 °F 70% 30.18 in 10.0 mi ENE 3.5 mph - N/A   Clear
6:15 AM 14.0 °F 8.2 °F 5.7 °F 70% 30.17 in 10.0 mi North 3.5 mph - N/A   Clear
6:35 AM 14.9 °F - 6.8 °F 70% 30.17 in 10.0 mi Calm Calm - N/A   Clear
6:55 AM 17.6 °F - 7.3 °F 64% 30.17 in 10.0 mi Calm Calm - N/A   Clear
7:15 AM 18.9 °F - 7.7 °F 62% 30.17 in 10.0 mi Calm Calm - N/A   Clear
7:35 AM 16.3 °F - 8.8 °F 72% 30.16 in 10.0 mi Calm Calm - N/A   Clear
7:55 AM 18.5 °F 11.7 °F 10.4 °F 71% 30.15 in 10.0 mi NNW 4.6 mph - N/A   Clear
8:15 AM 21.7 °F - 10.9 °F 63% 30.16 in 10.0 mi Calm Calm - N/A   Clear
8:35 AM 23.9 °F - 11.3 °F 59% 30.16 in 10.0 mi Calm Calm - N/A   Clear
8:55 AM 24.8 °F 17.9 °F 11.8 °F 58% 30.16 in 10.0 mi South 5.8 mph - N/A   Clear
9:15 AM 27.5 °F 23.6 °F 12.4 °F 53% 30.16 in 10.0 mi SW 3.5 mph - N/A   Clear
9:35 AM 28.9 °F 23.9 °F 12.0 °F 49% 30.16 in 10.0 mi SSW 4.6 mph - N/A   Clear
9:55 AM 29.3 °F 24.3 °F 11.5 °F 47% 30.16 in 10.0 mi SSW 4.6 mph - N/A   Clear
10:15 AM 30.2 °F 25.4 °F 10.9 °F 45% 30.15 in 10.0 mi SSE 4.6 mph - N/A   Clear
10:35 AM 31.5 °F 28.1 °F 10.4 °F 42% 30.14 in 10.0 mi SSW 3.5 mph - N/A   Clear
10:55 AM 33.1 °F 30.0 °F 10.9 °F 40% 30.14 in 10.0 mi WSW 3.5 mph - N/A   Clear
11:15 AM 35.2 °F 32.4 °F 10.8 °F 36% 30.13 in 10.0 mi SSW 3.5 mph - N/A   Clear
11:35 AM 38.3 °F - 10.6 °F 32% 30.11 in 10.0 mi Calm Calm - N/A   Clear
11:55 AM 40.3 °F - 10.8 °F 30% 30.10 in 10.0 mi Calm Calm - N/A   Clear
12:15 PM 40.8 °F - 9.5 °F 28% 30.08 in 10.0 mi Calm Calm - N/A   Clear
12:35 PM 42.4 °F - 8.4 °F 25% 30.06 in 10.0 mi Calm Calm - N/A   Clear
12:55 PM 43.0 °F 40.3 °F 6.8 °F 23% 30.04 in 10.0 mi South 4.6 mph - N/A   Clear
1:15 PM 43.7 °F 41.1 °F 7.3 °F 23% 30.04 in 10.0 mi South 4.6 mph - N/A   Clear
1:35 PM 44.4 °F - 8.1 °F 23% 30.03 in 10.0 mi Calm Calm - N/A   Clear
1:55 PM 44.2 °F - 8.1 °F 23% 30.02 in 10.0 mi Calm Calm - N/A   Clear
2:15 PM 43.9 °F - 7.5 °F 23% 30.01 in 10.0 mi Calm Calm - N/A   Clear
2:35 PM 44.6 °F - 7.5 °F 22% 30.01 in 10.0 mi Calm Calm - N/A   Clear
2:55 PM 44.6 °F - 7.7 °F 22% 30.00 in 10.0 mi Calm Calm - N/A   Clear
3:15 PM 45.3 °F - 7.3 °F 21% 30.00 in 10.0 mi Calm Calm - N/A   Clear
3:35 PM 44.8 °F - 7.5 °F 22% 30.00 in 10.0 mi Calm Calm - N/A   Scattered Clouds
3:55 PM 45.0 °F - 7.7 °F 22% 30.00 in 10.0 mi Calm Calm - N/A   Mostly Cloudy
4:15 PM 45.3 °F 44.0 °F 7.3 °F 21% 29.99 in 10.0 mi ENE 3.5 mph - N/A   Scattered Clouds
4:35 PM 43.9 °F - 7.3 °F 22% 29.99 in 10.0 mi Calm Calm - N/A   Scattered Clouds
4:55 PM 43.3 °F 41.7 °F 7.0 °F 22% 29.99 in 10.0 mi ENE 3.5 mph - N/A   Mostly Cloudy
5:15 PM 41.5 °F 39.6 °F 7.7 °F 25% 29.99 in 10.0 mi ENE 3.5 mph - N/A   Overcast
5:35 PM 39.2 °F 37.0 °F 8.1 °F 28% 30.01 in 10.0 mi North 3.5 mph - N/A   Overcast
5:55 PM 37.6 °F - 8.1 °F 29% 30.01 in 10.0 mi Calm Calm - N/A   Overcast
6:15 PM 36.5 °F 31.0 °F 8.8 °F 32% 30.01 in 10.0 mi ESE 6.9 mph - N/A   Overcast
6:35 PM 37.9 °F 33.5 °F 8.6 °F 30% 30.02 in 10.0 mi South 5.8 mph - N/A   Overcast
6:55 PM 36.5 °F 31.8 °F 9.0 °F 32% 30.02 in 10.0 mi SSW 5.8 mph - N/A   Overcast
7:15 PM 35.1 °F 29.3 °F 8.2 °F 33% 30.02 in 10.0 mi South 6.9 mph - N/A   Scattered Clouds
7:35 PM 34.5 °F - 7.3 °F 32% 30.03 in 10.0 mi Calm Calm - N/A   Scattered Clouds
7:55 PM 33.6 °F - 7.2 °F 33% 30.04 in 10.0 mi Calm Calm - N/A   Scattered Clouds
8:15 PM 31.3 °F 27.9 °F 6.8 °F 36% 30.04 in 10.0 mi South 3.5 mph - N/A   Scattered Clouds
8:35 PM 31.6 °F - 7.0 °F 35% 30.05 in 10.0 mi Calm Calm - N/A   Scattered Clouds
8:55 PM 29.7 °F - 6.8 °F 38% 30.06 in 10.0 mi Calm Calm - N/A   Scattered Clouds
9:15 PM 26.2 °F - 6.6 °F 43% 30.06 in 10.0 mi Calm Calm - N/A   Scattered Clouds
9:35 PM 25.0 °F - 7.0 °F 46% 30.08 in 10.0 mi Calm Calm - N/A   Clear
9:55 PM 26.8 °F - 6.1 °F 41% 30.08 in 10.0 mi Calm Calm - N/A   Clear
10:15 PM 23.2 °F 17.2 °F 6.6 °F 49% 30.08 in 10.0 mi East 4.6 mph - N/A   Clear
10:35 PM 25.9 °F 20.3 °F 7.7 °F 46% 30.08 in 10.0 mi ESE 4.6 mph - N/A   Clear
10:55 PM 25.9 °F - 7.5 °F 46% 30.08 in 10.0 mi Calm Calm - N/A   Clear
11:15 PM 26.4 °F - 7.9 °F 46% 30.08 in 10.0 mi Calm Calm - N/A   Clear
11:35 PM 27.7 °F 22.4 °F 9.7 °F 47% 30.09 in 10.0 mi ESE 4.6 mph - N/A   Clear
11:55 PM 25.2 °F 20.9 °F 8.6 °F 50% 30.09 in 10.0 mi SW 3.5 mph - N/A   Clear